Temperature
16 16 16 16 15 15 15 15 15 15 15 15 15 15 15 15 15 15 15 15 15 15 15 15 15 15 15 15 15 15 15 15 15 15 15 15 15 15 15 15 15 15 15
16 16 15 15 15 15 15 15 15 15 15 15 15 15 15 15 15 15 15 15 15 15 15 15 14 14 14 14 14 14 14 14 14 14 14 14 14 14 14 14 14 14 14
16 15 15 15 15 15 15 15 15 15 15 15 15 15 15 14 15 15 15 15 15 14 14 14 14 14 14 14 14 14 14 14 14 14 14 14 14 14 14 14 14 14 14
16 15 15 15 15 15 15 15 15 15 15 15 15 15 14 14 14 14 14 14 14 14 14 14 14 14 14 14 14 14 14 14 14 14 14 14 14 14 14 14 14 14 13
16 16 15 15 15 15 15 15 15 15 15 15 14 14 14 14 14 14 14 14 14 14 14 14 14 14 14 13 13 14 14 13 13 14 14 14 14 14 14 14 14 13 13
15 15 15 15 15 15 15 15 15 15 15 15 14 14 14 14 14 14 14 14 14 14 14 14 14 14 14 13 13 13 13 13 13 13 14 14 14 14 13 13 13 13 13
15 15 15 15 15 15 15 15 15 15 15 14 14 14 14 14 14 14 13 14 14 14 14 14 14 14 14 13 13 13 13 13 13 13 13 13 13 13 13 13 13 13 13
15 15 15 15 15 15 15 15 15 15 14 14 14 14 13 13 13 13 13 13 13 13 13 13 13 13 13 13 13 13 13 13 13 13 13 13 13 13 13 13 13 13 13
15 15 15 15 15 15 15 15 15 15 15 14 14 14 14 13 13 13 13 13 13 13 13 13 13 13 13 13 13 13 13 13 13 13 13 13 13 13 13 13 13 13 12
15 15 15 15 15 15 15 15 15 15 15 14 14 14 14 14 13 13 13 13 13 13 13 13 13 13 13 13 13 13 13 13 13 13 13 13 13 13 13 13 12 12 12
15 15 15 15 15 15 15 15 15 15 14 14 14 14 14 14 14 13 13 13 13 13 13 13 13 13 13 13 13 13 13 13 13 13 12 12 12 12 12 12 12 12 12
15 15 15 15 15 15 15 15 15 14 14 14 14 14 14 14 14 14 13 13 13 13 13 13 13 13 13 13 13 13 13 13 13 13 12 12 12 12 12 12 12 12 12
15 15 15 15 15 15 15 15 15 14 14 14 14 14 14 14 14 14 14 13 13 12 12 12 12 12 12 12 13 13 12 13 13 13 12 12 12 12 12 12 12 12 12
15 15 15 15 15 15 15 15 15 14 14 14 14 14 14 14 14 14 14 13 13 12 12 12 12 12 12 12 12 12 12 12 12 12 12 12 12 12 12 12 12 12 11
15 15 15 15 15 15 15 14 14 14 14 14 14 14 14 14 14 14 14 14 13 13 12 12 12 12 12 12 12 12 12 12 12 12 12 12 12 12 12 12 12 11 11
15 15 15 15 15 15 14 14 14 14 14 14 14 14 14 14 13 13 13 13 13 13 13 12 12 12 12 12 12 12 12 12 12 12 12 12 12 12 12 12 11 11 11
15 15 15 15 15 14 14 14 14 14 14 14 14 14 14 13 13 13 13 13 13 13 13 12 12 12 12 12 12 12 12 12 12 12 11 11 11 11 11 11 11 11 11
14 14 14 14 14 14 14 14 14 14 14 14 14 13 13 13 13 13 13 13 13 13 13 13 12 12 12 12 12 12 12 11 11 11 11 11 11 11 11 11 11 11 11
14 14 14 14 14 14 14 14 14 14 14 13 13 13 13 13 13 13 13 13 13 13 13 13 12 12 12 12 12 11 11 11 11 11 11 11 11 11 11 11 10 10 10
14 14 14 14 14 14 14 14 13 13 13 13 13 13 13 13 13 13 13 13 13 13 12 12 12 12 12 11 11 11 11 11 11 11 11 11 10 10 10 10 10 10 10
13 13 14 14 13 13 13 13 13 13 13 13 13 13 13 13 13 13 13 13 13 12 12 12 12 12 12 11 11 11 11 11 11 11 11 10 10 10 10 10 10 10 10
13 13 13 13 13 13 13 13 13 13 13 13 13 13 13 13 13 13 13 12 12 12 12 12 12 12 12 11 11 11 11 11 10 10 10 10 10 10 10 10 10 10 10
13 13 13 13 13 13 13 13 13 13 13 13 13 13 13 12 12 12 12 12 12 12 12 12 12 12 11 11 11 11 11 11 10 10 10 10 10 10 10 10 9 9 9
12 13 13 13 13 13 13 13 13 13 13 13 12 12 12 12 12 12 12 12 12 12 12 12 12 11 11 11 11 11 10 10 10 10 10 10 10 10 10 9 9 9 9
12 12 12 12 12 12 12 12 12 12 12 12 12 12 12 12 12 12 12 12 12 12 11 11 11 11 11 11 11 10 10 10 10 10 10 9 9 9 9 9 9 9 9
12 12 12 12 12 12 12 12 12 12 12 12 12 12 12 12 12 12 12 11 11 11 11 11 11 11 11 10 10 10 10 10 10 9 9 9 9 9 9 9 9 8 8
Wind_Speed
3 3 3 4 4 5 5 5 5 5 6 6 7 8 7 7 8 7 8 10 10 10 10 10 9 9 9 8 9 8 8 9 9 9 9 10 9 9 9 9 9 8 8
4 3 3 3 4 5 5 5 5 5 5 5 5 7 7 7 8 8 8 9 10 10 10 9 9 8 7 8 9 8 8 8 8 9 9 9 9 9 9 9 9 9 9
6 5 4 3 4 6 6 6 6 5 5 5 5 5 6 6 7 7 7 7 8 9 10 9 9 8 8 9 8 8 8 8 8 8 8 8 9 9 9 9 9 9 9
7 6 4 3 5 6 5 4 4 5 5 4 4 3 4 5 6 6 7 6 6 7 8 9 9 9 9 9 8 9 9 9 8 8 8 8 8 8 9 10 10 10 10
8 7 4 4 6 5 4 4 4 4 4 4 4 4 3 3 4 5 5 5 6 6 6 7 8 8 9 8 8 9 9 9 8 8 8 8 8 8 8 9 9 9 9
8 7 5 5 6 4 4 4 4 4 3 3 5 5 3 3 3 4 4 4 5 5 6 6 7 7 8 8 8 8 8 8 8 8 8 8 8 8 8 8 8 8 8
7 6 5 4 4 4 4 4 4 4 3 3 4 4 4 4 4 3 3 3 3 4 5 6 6 6 6 7 7 7 7 7 7 7 7 7 7 7 7 8 8 8 8
6 6 5 4 4 4 4 4 4 3 1 1 3 3 2 4 4 3 2 2 2 3 4 4 5 5 5 6 6 7 6 6 6 6 6 6 7 7 7 7 6 7 7
5 6 6 5 4 4 4 4 4 4 2 0 1 3 3 2 1 3 2 2 2 2 2 3 4 4 5 5 5 5 5 5 5 5 5 5 6 6 6 6 6 6 6
4 5 6 5 4 3 4 4 3 3 3 2 0 1 2 4 3 0 2 2 2 1 1 2 3 4 4 5 5 5 5 4 4 4 4 4 4 4 4 4 4 5 5
2 4 5 5 4 3 4 3 3 3 2 2 2 1 2 2 2 3 1 1 2 2 1 1 2 3 3 4 4 4 4 4 4 4 3 3 3 3 3 3 3 5 5
1 2 4 4 4 3 3 3 3 3 2 2 2 2 2 2 2 3 2 1 0 2 1 0 1 2 3 3 3 4 4 4 3 3 3 3 2 2 3 3 3 5 5
1 1 2 3 3 3 3 3 3 3 3 3 3 2 2 2 3 3 4 2 1 1 1 1 1 2 3 3 3 4 4 4 3 2 2 2 2 2 2 2 3 4 5
2 2 2 3 3 3 3 3 2 2 2 3 3 2 2 1 3 4 4 4 2 1 1 2 1 1 3 4 4 4 4 4 3 3 2 2 2 2 3 3 3 3 4
2 2 2 2 2 2 3 3 2 2 2 2 2 2 2 1 2 2 3 4 4 2 1 2 1 1 2 3 3 4 4 4 3 3 2 2 3 3 3 3 4 4 4
1 2 2 2 2 2 2 2 2 2 3 2 2 3 2 1 2 2 3 3 3 4 2 2 2 1 2 3 3 4 3 3 3 3 3 3 3 3 3 3 3 4 4
2 3 3 3 3 2 2 3 2 2 2 2 2 3 2 2 2 2 2 2 3 3 3 1 0 0 2 2 2 2 2 2 2 3 3 3 4 3 3 3 3 3 3
2 3 3 3 2 2 2 3 2 2 3 2 2 2 2 2 2 2 2 2 2 2 4 2 0 0 1 2 2 1 1 1 2 2 3 3 3 3 3 3 3 3 3
3 2 3 3 2 2 2 2 3 2 2 2 2 3 3 3 2 2 2 2 2 2 2 3 1 0 0 1 1 0 0 0 1 1 2 3 3 3 3 3 3 2 2
3 3 3 2 2 2 2 2 2 2 2 2 2 2 3 4 4 3 3 3 3 3 3 3 2 1 0 0 1 0 1 1 1 0 1 1 2 3 3 3 3 3 3
3 3 3 2 1 2 2 2 3 3 2 2 1 1 2 3 4 4 3 4 4 3 3 3 2 1 1 1 1 1 1 1 1 0 0 0 0 0 1 2 3 4 4
2 2 3 3 2 2 2 4 3 3 3 3 2 1 1 1 3 4 4 6 7 6 5 3 2 3 3 3 2 2 2 1 2 1 1 1 1 1 2 3 3 4 4
3 3 3 3 3 2 2 3 4 3 3 3 2 2 1 1 2 2 3 4 4 5 7 6 5 5 4 4 4 3 3 3 3 2 2 1 1 2 3 3 4 5 5
3 3 3 3 3 3 3 3 4 3 2 2 2 2 2 1 2 3 3 2 2 3 5 5 5 5 4 5 5 4 4 2 1 1 2 1 1 2 2 3 5 5 6
3 3 3 3 3 3 4 4 4 2 2 2 2 2 2 2 3 4 4 3 2 2 3 4 5 4 3 3 4 3 2 2 1 2 1 2 1 1 1 2 4 5 6
4 3 3 4 4 4 4 5 5 3 2 2 1 1 2 2 3 4 4 5 4 4 2 1 1 1 1 2 3 4 4 3 2 2 2 2 1 1 1 2 2 2 3
Wind_Direction
113 105 104 101 95 95 94 90 91 86 84 86 92 95 88 86 83 76 78 81 86 89 88 88 88 88 92 93 94 92 92 91 89 91 90 90 89 89 89 91 93 91 90
123 107 96 96 99 107 107 102 95 87 80 85 86 91 91 89 85 81 76 75 78 82 84 81 78 80 91 95 93 93 93 91 90 90 94 94 91 91 92 90 88 89 90
120 112 107 101 103 109 103 94 87 86 84 83 81 87 91 94 93 88 83 76 72 74 78 77 72 78 90 95 93 94 95 94 95 94 98 99 96 95 96 96 92 90 91
121 111 106 105 110 106 102 94 85 83 76 76 77 74 80 84 92 97 90 83 76 73 73 74 74 81 90 90 92 94 95 95 95 96 102 105 101 98 97 99 97 94 92
124 116 115 113 108 100 96 102 84 93 89 82 81 72 67 75 79 97 88 83 81 83 79 76 73 77 83 85 90 94 93 93 94 97 101 104 106 103 100 99 98 97 96
123 118 119 114 108 100 90 94 93 82 96 98 90 72 59 58 68 81 93 88 83 86 83 82 75 69 74 80 85 91 92 92 93 96 101 103 105 105 106 102 102 100 99
127 122 126 118 115 116 121 116 108 93 86 97 88 61 34 38 58 61 71 80 81 84 88 89 83 76 69 71 80 89 90 92 93 95 98 103 103 103 105 105 104 103 102
137 136 136 133 129 121 116 118 117 111 123 119 115 100 49 16 14 35 50 74 76 86 91 98 88 82 79 74 75 82 86 95 96 98 99 103 106 103 104 107 111 107 109
143 141 145 144 145 139 144 146 142 137 153 195 124 134 138 180 318 358 18 44 55 73 78 96 97 90 88 83 75 74 80 83 94 102 105 108 110 111 108 107 108 110 111
142 141 144 147 149 148 156 167 156 150 146 154 126 102 148 153 150 110 353 3 22 57 65 101 97 98 104 97 90 82 82 83 85 95 102 103 109 120 118 114 113 117 117
133 141 144 144 148 156 164 161 151 151 152 159 163 135 101 96 119 146 174 333 3 353 44 109 113 118 127 124 116 107 96 91 80 76 88 95 103 122 131 131 123 133 133
74 122 139 141 147 152 165 171 168 163 165 158 161 162 157 149 157 147 165 184 243 315 347 78 135 137 147 151 151 137 123 108 99 78 65 74 93 112 120 130 129 133 132
125 204 139 143 149 162 169 161 159 177 175 161 167 177 177 171 156 148 146 161 167 310 347 338 254 169 165 162 163 153 138 130 123 110 84 69 88 109 112 114 123 132 129
190 179 141 143 157 161 158 148 147 176 170 170 170 162 157 167 152 153 154 149 134 8 345 280 310 184 164 163 172 162 146 149 143 133 128 117 113 109 108 104 116 129 124
174 151 142 140 146 146 146 140 143 159 151 156 157 149 143 147 143 149 146 150 149 158 242 260 257 238 176 169 176 164 164 161 160 158 145 141 139 130 121 107 101 111 115
151 138 133 135 128 125 127 131 134 146 135 140 146 133 126 137 127 128 140 137 136 150 181 231 228 229 172 160 170 170 173 171 175 177 171 164 156 148 134 125 116 112 118
138 142 147 141 138 132 121 122 128 129 133 136 140 142 152 139 130 136 129 122 127 133 153 248 300 107 128 146 137 155 176 178 187 193 194 185 171 167 160 147 137 126 124
143 141 146 146 149 143 133 132 142 131 129 140 153 147 168 160 143 146 140 141 144 147 149 162 324 56 172 175 149 140 163 182 195 205 206 197 189 180 174 166 155 152 149
150 137 135 150 162 157 153 158 153 155 152 155 160 162 176 157 164 161 159 159 151 141 139 151 176 172 119 128 96 17 49 60 219 220 208 216 206 195 186 180 174 180 178
154 158 166 167 173 168 158 161 160 158 158 160 165 167 169 167 178 175 168 166 151 135 132 141 155 168 165 165 113 120 336 315 273 302 155 187 193 195 197 196 191 193 194
162 166 154 154 161 163 168 165 172 175 170 165 175 199 185 171 171 175 169 169 156 145 143 150 166 158 196 155 192 195 205 288 306 275 104 316 125 163 230 228 217 215 210
171 158 161 169 176 186 164 169 166 180 185 178 187 229 229 193 191 177 169 164 164 165 170 167 185 198 223 215 201 188 176 135 289 274 152 257 170 223 244 224 219 214 210
173 173 180 175 192 208 171 169 173 172 181 190 193 205 223 219 194 194 183 175 179 180 176 175 185 209 212 207 185 186 194 190 223 232 148 253 241 235 247 235 229 221 212
178 190 200 193 195 216 189 175 169 166 173 198 203 197 200 246 205 182 171 171 199 213 202 188 194 210 212 202 188 187 188 182 265 302 154 208 253 250 261 245 243 222 211
193 203 203 195 197 227 210 186 166 163 173 213 222 210 195 209 208 173 160 174 203 251 225 193 193 194 193 190 169 138 139 138 230 263 198 179 229 256 282 270 258 235 219
201 204 215 213 207 219 213 192 175 168 182 221 252 247 220 206 195 172 172 180 198 228 210 163 153 203 183 180 173 171 176 173 185 236 227 177 202 163 282 290 282 250 228
Height
1531 1531 1531 1531 1531 1531 1531 1531 1531 1531 1531 1531 1531 1532 1532 1531 1532 1532 1531 1531 1531 1531 1530 1529 1529 1528 1527 1527 1528 1528 1528 1529 1529 1529 1530 1530 1531 1531 1531 1532 1532 1532 1532
1532 1532 1532 1532 1532 1532 1533 1533 1533 1533 1533 1533 1533 1533 1533 1533 1533 1533 1533 1533 1532 1532 1531 1530 1528 1526 1526 1526 1527 1528 1528 1529 1529 1530 1530 1531 1531 1532 1532 1533 1533 1533 1533
1533 1533 1533 1533 1534 1534 1534 1534 1534 1534 1534 1534 1534 1535 1535 1535 1535 1535 1534 1534 1533 1533 1532 1531 1529 1525 1524 1526 1527 1528 1528 1529 1529 1530 1531 1531 1532 1532 1533 1533 1533 1533 1534
1534 1534 1534 1535 1535 1535 1535 1535 1535 1535 1535 1535 1535 1536 1536 1536 1536 1536 1535 1535 1535 1534 1533 1532 1531 1528 1527 1528 1529 1529 1529 1530 1530 1531 1531 1532 1532 1533 1533 1533 1534 1534 1534
1535 1535 1535 1536 1536 1536 1536 1536 1536 1536 1536 1537 1537 1537 1537 1537 1537 1537 1537 1536 1536 1535 1535 1534 1533 1532 1531 1531 1531 1531 1531 1531 1531 1531 1531 1532 1533 1533 1534 1534 1534 1534 1535
1536 1536 1536 1537 1537 1537 1537 1537 1537 1538 1538 1538 1538 1538 1538 1538 1538 1538 1538 1537 1537 1536 1536 1535 1534 1533 1533 1533 1532 1532 1532 1532 1532 1532 1532 1533 1533 1534 1534 1534 1534 1535 1535
1536 1536 1537 1537 1537 1538 1538 1538 1538 1538 1538 1539 1539 1539 1539 1539 1539 1539 1539 1538 1538 1537 1537 1536 1535 1535 1534 1534 1533 1533 1533 1533 1533 1533 1533 1534 1534 1534 1535 1535 1535 1535 1535
1537 1537 1537 1537 1538 1538 1538 1538 1539 1539 1539 1539 1539 1539 1540 1541 1540 1540 1540 1539 1538 1538 1537 1537 1536 1536 1535 1535 1534 1534 1534 1534 1534 1534 1534 1534 1535 1535 1535 1535 1535 1535 1536
1537 1537 1538 1538 1538 1538 1538 1539 1539 1539 1539 1539 1539 1540 1540 1540 1540 1541 1540 1540 1539 1538 1538 1538 1537 1537 1536 1536 1535 1535 1535 1535 1534 1534 1534 1535 1535 1535 1535 1535 1535 1535 1536
1537 1537 1538 1538 1538 1538 1538 1539 1539 1539 1539 1539 1539 1539 1540 1539 1539 1540 1541 1540 1540 1539 1539 1539 1538 1538 1537 1537 1536 1536 1535 1535 1535 1535 1535 1535 1535 1535 1535 1535 1535 1535 1536
1537 1537 1537 1537 1538 1538 1538 1538 1538 1539 1539 1539 1539 1538 1538 1538 1538 1538 1539 1540 1540 1540 1540 1539 1539 1538 1538 1537 1537 1536 1536 1536 1535 1535 1535 1535 1535 1535 1535 1535 1535 1535 1535
1536 1536 1537 1537 1537 1537 1538 1538 1538 1538 1538 1538 1538 1538 1538 1537 1537 1537 1538 1538 1539 1540 1540 1540 1539 1539 1538 1538 1537 1537 1537 1536 1536 1535 1535 1535 1535 1535 1535 1535 1535 1535 1535
1535 1535 1536 1536 1536 1537 1537 1537 1537 1537 1537 1537 1537 1537 1537 1537 1537 1537 1537 1537 1538 1539 1539 1539 1539 1539 1538 1538 1537 1537 1537 1536 1536 1536 1535 1535 1535 1535 1535 1534 1535 1535 1535
1534 1535 1535 1535 1535 1536 1536 1536 1536 1535 1536 1536 1536 1536 1536 1536 1537 1537 1537 1537 1537 1538 1538 1538 1539 1539 1538 1538 1538 1537 1537 1536 1536 1536 1535 1535 1535 1534 1534 1534 1534 1534 1534
1533 1533 1534 1534 1534 1534 1534 1534 1534 1534 1534 1535 1535 1535 1535 1535 1536 1536 1536 1536 1536 1536 1537 1538 1538 1538 1538 1538 1537 1537 1537 1536 1536 1535 1535 1534 1534 1534 1534 1534 1533 1533 1534
1531 1531 1532 1532 1532 1532 1533 1533 1533 1533 1533 1533 1534 1534 1534 1534 1534 1535 1535 1535 1535 1536 1536 1536 1537 1537 1537 1537 1537 1536 1536 1536 1535 1535 1534 1534 1533 1533 1533 1533 1533 1533 1533
1529 1530 1530 1530 1531 1531 1531 1531 1531 1532 1532 1532 1532 1533 1533 1533 1534 1534 1534 1534 1535 1535 1535 1535 1536 1536 1536 1536 1536 1536 1535 1535 1534 1534 1533 1533 1532 1532 1532 1532 1532 1532 1532
1528 1528 1529 1529 1529 1529 1529 1530 1530 1530 1530 1531 1531 1531 1531 1532 1532 1533 1533 1533 1533 1534 1534 1534 1534 1535 1535 1535 1535 1535 1534 1534 1533 1533 1533 1532 1532 1532 1532 1531 1531 1531 1531
1526 1526 1527 1527 1527 1527 1528 1528 1528 1528 1529 1529 1529 1530 1530 1530 1531 1531 1532 1532 1532 1533 1533 1533 1533 1534 1534 1534 1534 1533 1533 1533 1532 1532 1532 1531 1531 1531 1531 1531 1531 1531 1530
1524 1524 1525 1525 1525 1526 1526 1526 1527 1527 1527 1527 1528 1528 1528 1528 1529 1529 1530 1530 1531 1531 1531 1532 1532 1532 1532 1532 1532 1532 1531 1531 1531 1531 1530 1530 1530 1530 1530 1530 1530 1530 1529
1521 1522 1523 1523 1524 1524 1524 1524 1525 1525 1525 1526 1526 1526 1527 1527 1527 1528 1528 1528 1529 1529 1529 1530 1530 1530 1530 1530 1530 1530 1530 1530 1529 1529 1529 1529 1529 1528 1528 1528 1528 1528 1528
1519 1519 1520 1521 1521 1522 1522 1522 1523 1523 1523 1524 1524 1524 1525 1525 1526 1526 1526 1526 1527 1527 1527 1527 1528 1528 1528 1528 1529 1528 1528 1528 1527 1528 1527 1527 1527 1527 1527 1527 1527 1527 1526
1516 1517 1517 1518 1518 1519 1520 1520 1520 1521 1521 1521 1522 1522 1523 1523 1523 1524 1524 1524 1524 1525 1525 1525 1525 1526 1526 1526 1526 1526 1526 1526 1526 1526 1526 1525 1525 1525 1525 1525 1525 1525 1524
1513 1514 1515 1515 1516 1516 1517 1517 1518 1518 1519 1519 1519 1520 1520 1520 1521 1521 1521 1521 1522 1522 1522 1523 1523 1523 1524 1524 1524 1524 1524 1524 1524 1524 1524 1523 1523 1523 1523 1522 1522 1522 1522
1510 1511 1512 1512 1513 1513 1514 1515 1515 1516 1516 1516 1517 1517 1517 1517 1518 1518 1519 1519 1519 1519 1520 1520 1521 1521 1521 1521 1521 1521 1521 1521 1520 1521 1521 1521 1520 1520 1520 1519 1519 1519 1519
1507 1508 1509 1510 1510 1510 1511 1512 1512 1513 1513 1513 1513 1514 1514 1514 1515 1515 1515 1515 1516 1516 1517 1517 1518 1518 1518 1518 1518 1518 1518 1518 1518 1518 1518 1518 1517 1517 1516 1516 1516 1516 1516